Theta_e
343 344 345 345 345 344 345 344 345 346 345 348 351 351 350 347 346 346 348 350 352 353 353 352 349 348 350 351 350 350 349 348 347 344 343 342 342 341 341 342 343 343 343 344 344 344 344 344 344 344 345 345 344 345 346 346 346 346 348 348 349 348 348 347 346 346 347 346 345 344 341 341 343 343 343 344 344 344 344 343 343 342 342 342 339
343 343 344 344 343 344 344 343 345 345 345 348 350 350 349 349 347 343 344 348 351 353 352 351 350 346 348 349 349 348 348 348 347 345 345 343 342 342 342 342 342 342 343 345 344 344 344 344 343 344 344 343 342 343 344 345 345 345 347 348 348 349 348 347 345 344 345 345 344 344 343 342 343 343 343 343 343 344 344 343 344 343 342 342 340
342 341 343 343 342 343 343 343 345 344 345 348 350 350 349 349 347 342 341 343 347 351 351 350 350 347 348 349 348 348 347 347 347 345 346 345 342 342 342 342 341 341 343 345 345 345 344 342 341 343 343 343 342 343 343 344 345 345 347 348 348 349 347 346 346 346 345 344 344 344 344 343 343 343 343 343 343 343 343 343 343 343 343 342 341
341 341 343 342 342 342 343 344 345 344 345 347 349 350 348 349 347 342 340 340 342 347 349 348 348 348 349 348 348 348 346 347 347 346 347 346 342 341 341 342 341 341 343 345 345 346 345 342 340 341 342 344 344 344 344 343 344 345 348 348 347 347 346 346 346 346 345 344 345 344 344 344 343 343 342 342 342 342 343 343 343 343 343 341 340
340 341 342 341 341 342 343 344 345 344 345 346 348 349 348 347 347 344 340 339 338 341 347 347 347 350 350 349 349 349 347 347 347 347 346 345 342 341 342 342 341 341 343 345 345 346 346 343 342 341 342 344 345 345 344 343 342 343 346 347 346 346 346 346 346 346 344 344 344 345 344 344 344 344 342 342 342 342 342 342 343 343 341 339 339
340 341 341 341 341 341 343 344 344 345 344 344 346 348 348 347 347 346 342 339 337 338 344 346 347 350 349 348 349 349 348 348 347 348 347 344 343 343 343 341 340 340 342 344 345 345 345 343 343 343 343 344 344 344 344 343 342 343 346 346 345 346 345 345 345 345 344 343 344 345 345 345 344 344 343 342 341 341 341 340 342 342 339 339 340
341 341 341 340 341 341 342 343 344 345 344 344 345 347 348 346 347 347 343 340 337 337 340 343 346 350 348 347 349 349 348 348 347 348 347 345 344 343 342 340 339 340 342 343 344 345 344 343 343 345 344 344 344 343 342 343 343 345 346 345 346 347 345 345 345 344 343 343 344 345 345 345 344 344 344 342 341 340 339 339 340 341 339 340 341
342 342 341 340 341 341 342 343 343 344 345 344 344 346 347 346 346 346 343 340 339 337 338 340 345 349 349 348 348 348 348 348 347 348 348 346 345 343 343 342 341 341 342 343 344 344 343 343 344 344 344 343 344 343 341 342 343 345 345 345 347 346 345 345 344 342 342 343 344 344 344 343 343 343 343 343 342 341 338 337 339 340 339 340 342
344 343 342 340 340 341 341 342 343 344 345 344 344 344 345 345 346 345 343 340 340 339 337 339 344 347 348 348 347 347 348 349 348 348 348 347 347 346 345 345 344 343 344 344 345 344 342 343 344 344 344 343 343 342 341 341 342 343 345 345 346 346 345 344 344 343 343 344 344 343 342 342 343 343 343 342 343 342 340 338 339 340 339 340 341
345 344 344 342 340 341 341 341 343 344 344 344 344 344 343 343 345 344 340 338 340 340 337 338 343 347 347 347 347 347 347 349 349 349 349 348 348 348 346 347 346 346 346 345 345 344 343 344 344 344 344 344 343 342 341 342 342 343 345 346 347 346 344 343 343 343 343 343 344 343 341 342 343 342 343 344 343 343 343 340 339 340 342 342 342
345 345 346 344 340 341 342 341 342 343 343 344 344 343 343 342 344 343 338 336 338 340 339 338 341 346 347 346 346 347 347 348 349 349 350 349 347 348 347 347 348 347 346 345 345 344 344 344 344 344 344 344 345 344 343 344 344 346 347 346 347 346 343 343 343 343 343 343 344 343 342 343 344 344 344 344 344 344 344 342 340 341 342 343 342
346 345 346 346 343 341 342 342 342 343 343 343 344 343 343 342 343 343 339 336 336 337 339 339 340 343 346 347 346 346 347 347 347 348 349 349 346 347 347 346 347 348 346 345 345 344 344 345 344 344 345 344 345 346 346 347 346 347 347 346 345 344 342 343 343 342 343 343 343 343 342 344 345 344 344 343 343 343 344 343 342 340 341 343 343
348 346 346 346 345 342 342 342 342 343 343 343 344 344 344 343 342 342 339 335 334 334 336 338 338 340 343 346 347 347 347 347 347 347 348 349 346 347 347 344 345 347 345 344 345 344 344 345 343 344 346 345 345 346 347 349 348 347 346 343 342 342 341 341 341 341 342 343 342 341 342 344 345 345 345 342 341 340 341 344 344 341 341 341 342
349 347 346 347 347 344 343 343 342 343 343 343 344 344 345 344 343 343 340 336 334 334 335 335 336 337 340 344 346 348 348 347 347 347 348 350 348 347 347 343 343 345 344 344 345 345 344 345 343 343 346 346 345 346 348 349 349 347 343 341 341 341 341 341 340 339 341 343 341 341 343 344 345 346 345 342 341 340 339 342 345 343 342 340 341
350 347 346 346 348 345 343 344 343 344 344 344 345 344 345 345 344 344 342 338 335 334 335 334 334 335 337 341 344 346 347 346 347 347 347 348 349 348 347 344 343 344 344 344 345 345 344 344 344 344 345 345 346 348 349 349 348 345 342 340 340 341 341 342 341 340 341 342 342 343 344 344 346 346 345 344 344 342 340 341 344 345 344 342 342
352 351 349 348 349 347 345 345 344 344 345 344 345 345 345 346 345 344 343 339 335 334 336 336 334 333 334 338 341 342 344 346 347 347 346 346 347 348 348 346 344 344 345 345 346 345 344 344 345 345 345 344 346 348 348 349 348 345 344 342 340 341 341 341 341 340 341 341 342 344 345 345 346 347 347 347 346 346 344 343 344 345 344 344 344
352 352 352 351 351 349 347 346 345 345 345 345 346 346 346 346 345 345 344 342 337 333 334 335 335 333 332 334 337 339 341 344 346 346 345 346 346 346 347 346 345 344 345 347 346 344 344 344 344 345 345 344 345 346 346 348 348 346 346 345 342 341 342 341 340 340 340 340 341 344 344 345 346 347 347 347 347 348 348 347 346 345 344 345 345
352 353 353 352 350 349 348 348 347 346 346 346 346 347 347 346 345 345 345 345 342 335 331 333 335 335 334 334 335 336 338 341 343 342 342 345 347 344 344 345 346 345 344 346 346 344 345 344 343 344 344 344 345 345 345 347 347 347 348 348 345 343 344 342 340 339 339 339 340 341 341 342 345 346 347 347 347 347 347 347 346 345 345 345 346
353 353 353 352 349 349 350 349 348 347 347 347 347 347 347 346 346 346 345 346 345 338 331 331 333 335 336 335 335 335 336 339 341 340 339 342 344 343 341 342 345 346 345 344 344 344 344 344 342 342 344 344 344 345 344 345 346 346 347 348 346 345 345 344 341 339 338 338 339 339 339 341 344 346 346 346 346 346 346 346 346 345 346 345 346
353 352 352 353 351 351 351 349 349 348 347 347 347 346 346 346 346 346 346 346 347 342 333 329 332 335 338 338 337 336 336 338 339 339 339 339 340 340 340 339 342 344 345 344 343 342 343 344 343 342 342 344 344 344 344 344 345 345 344 346 346 345 345 345 342 341 341 342 342 341 341 341 343 345 345 346 346 346 346 346 345 344 345 346 345
352 352 353 353 353 353 352 350 349 349 349 349 349 347 347 347 346 346 346 346 347 346 338 332 331 333 336 338 338 337 336 337 338 339 340 339 339 338 338 338 339 341 343 344 343 342 341 342 343 343 342 342 343 344 344 344 344 344 344 345 345 345 346 346 344 343 343 345 347 346 345 345 344 344 343 344 344 345 346 346 345 344 346 348 345
350 351 352 353 353 353 352 350 350 349 349 350 350 350 349 349 348 349 351 351 350 349 346 342 338 337 337 337 336 337 337 337 337 338 339 339 339 338 338 339 338 339 344 345 345 344 343 342 342 342 342 341 342 343 344 344 345 344 344 345 345 345 345 345 345 345 344 346 348 349 348 349 349 346 343 341 341 343 345 346 346 344 346 347 345
349 350 352 353 355 354 352 350 349 349 350 349 350 350 351 351 352 353 353 353 352 351 349 346 342 341 341 340 338 336 336 337 338 338 338 339 340 340 341 341 339 340 345 348 347 346 346 344 342 341 341 341 340 341 342 343 344 344 344 344 345 344 345 345 344 344 344 344 345 346 347 348 348 346 343 341 340 341 343 346 348 346 345 346 346
348 349 350 352 354 355 354 352 351 351 351 350 350 349 350 352 352 352 352 351 351 351 351 348 344 344 345 346 345 342 339 337 336 337 339 339 340 342 343 345 345 344 345 348 349 348 348 347 344 342 341 340 339 339 340 341 342 343 343 343 344 344 344 345 344 344 344 343 343 343 343 345 346 344 343 342 342 341 342 343 345 346 346 348 349
347 348 348 349 350 352 353 354 353 353 352 351 351 350 350 350 350 350 349 348 348 350 353 351 349 350 351 350 350 348 348 345 341 338 339 342 345 346 347 348 348 348 347 348 348 347 347 346 345 345 343 341 339 338 338 339 339 341 342 342 342 343 342 343 344 344 344 344 345 344 343 344 344 343 342 342 342 342 342 343 343 344 345 347 349
345 346 345 345 346 347 350 352 353 353 353 352 352 352 351 350 349 349 348 348 348 350 353 351 349 351 353 352 349 347 349 352 351 346 342 344 349 351 350 349 349 349 348 348 348 347 345 343 343 343 343 342 341 340 338 338 338 339 340 340 341 341 341 341 341 342 343 343 344 344 344 343 343 342 341 342 342 342 343 343 343 344 345 347 349
341 342 342 342 343 345 348 350 352 352 352 352 352 351 351 350 350 350 349 349 350 352 353 351 350 350 351 353 352 348 347 352 355 353 349 348 352 353 351 350 349 349 348 348 348 348 346 344 342 341 341 341 342 342 340 340 340 338 337 338 339 339 340 340 340 340 341 342 342 342 342 342 341 341 340 340 341 342 342 341 342 343 344 346 348
337 338 339 340 341 342 344 346 349 350 350 350 351 351 352 351 351 351 351 351 352 353 354 353 352 351 351 353 353 351 349 349 352 355 353 352 353 353 351 349 348 348 348 347 347 346 346 346 345 344 343 342 341 341 341 341 342 341 339 337 337 336 336 337 338 339 338 338 339 338 338 337 336 335 335 337 340 342 342 341 341 342 343 343 345
335 335 336 338 339 339 341 342 344 347 348 349 349 349 350 351 351 352 352 353 354 354 354 354 354 353 352 352 352 352 351 351 353 354 354 353 353 353 351 350 348 348 348 349 347 345 345 345 346 346 346 345 343 342 341 341 341 342 341 339 337 335 335 334 335 337 338 337 335 333 332 331 330 330 330 335 340 343 345 345 345 345 344 344 343
332 332 333 334 334 336 338 340 341 343 345 347 348 348 349 349 351 352 352 352 353 353 353 353 353 353 352 352 352 352 352 352 353 354 354 353 354 353 351 349 349 348 348 349 349 348 345 344 345 346 346 346 345 344 343 342 341 340 340 338 336 335 335 335 335 337 339 339 337 334 331 329 328 329 330 332 335 340 344 346 346 346 347 347 346
330 331 331 332 332 332 334 336 338 340 341 343 344 346 348 349 350 351 351 351 351 351 351 351 352 352 352 352 352 353 353 353 353 352 352 353 353 353 351 349 348 348 348 348 349 349 348 345 344 345 346 347 346 345 344 343 342 342 341 340 338 335 334 334 335 336 336 338 340 339 337 334 333 332 332 333 334 338 341 344 345 345 345 345 345
327 328 328 329 329 331 332 333 336 339 341 341 342 343 345 346 347 347 349 350 350 351 351 351 351 350 351 351 352 352 353 354 353 353 351 350 350 351 351 349 347 347 348 348 348 349 349 347 345 345 345 346 346 346 346 345 344 344 344 344 343 342 340 337 335 334 333 333 335 336 337 336 335 333 334 335 337 338 340 343 344 343 343 343 342
325 324 324 325 326 328 330 331 334 338 339 339 340 341 342 343 344 344 346 346 347 349 351 351 351 351 350 351 351 351 352 352 353 353 351 349 349 348 349 348 347 347 348 348 348 348 349 348 347 346 345 346 346 346 346 346 346 346 346 346 346 346 346 345 342 339 336 335 334 334 334 333 333 331 331 333 334 335 337 339 340 340 341 342 342
325 323 323 323 323 325 327 329 330 332 334 335 335 334 334 337 341 342 342 343 345 346 348 348 349 350 351 352 352 352 352 352 352 352 351 351 351 349 348 347 346 346 347 348 349 349 349 349 348 347 346 346 345 345 345 346 347 347 347 347 347 347 348 348 348 346 344 342 341 340 339 338 338 336 335 334 332 332 333 334 336 337 337 338 340
324 324 323 323 323 323 324 325 326 327 329 332 333 330 328 329 334 338 340 341 342 343 343 343 344 346 349 351 352 352 353 353 352 352 352 352 351 352 351 350 348 347 347 348 349 349 348 348 348 347 347 346 346 345 345 346 347 347 348 348 349 349 350 350 350 349 348 347 346 345 344 343 342 342 341 340 339 337 335 335 337 339 339 337 337
323 323 323 323 323 323 323 323 324 325 326 330 333 331 326 324 324 328 334 338 340 340 341 341 342 343 345 347 348 349 350 351 351 352 352 352 352 352 351 351 351 350 349 350 351 351 350 348 347 347 347 346 346 347 347 347 348 348 349 349 350 350 350 350 350 349 349 349 348 347 347 345 344 343 343 343 343 342 341 340 340 340 339 339 338
323 322 323 323 322 322 323 323 323 324 325 329 331 329 327 325 322 320 323 329 332 332 334 336 338 340 341 342 344 346 347 347 347 349 349 351 351 351 352 351 351 351 351 351 351 352 352 351 349 348 347 346 345 345 347 348 348 349 349 349 349 349 349 349 349 349 349 349 349 348 348 347 345 344 344 343 343 343 343 343 344 343 343 343 343
322 322 322 322 321 322 323 323 323 322 323 326 328 327 325 326 325 320 317 318 319 318 319 323 327 331 331 331 335 341 343 343 343 345 345 346 348 348 349 349 350 350 350 350 350 351 351 351 351 350 350 350 349 348 349 348 349 349 348 348 348 348 348 347 346 346 347 348 348 349 349 348 348 346 345 345 344 344 343 343 344 345 346 347 347
320 321 321 321 321 321 322 322 322 322 322 323 325 326 325 324 323 320 317 315 314 314 314 315 317 320 322 322 326 331 333 332 334 337 340 342 344 346 347 347 347 347 348 348 348 348 349 349 349 349 349 350 350 350 351 351 351 350 349 348 348 347 347 347 346 347 347 348 348 348 349 348 348 348 348 347 346 345 345 344 345 345 347 348 349
319 320 320 320 320 320 320 321 321 321 321 321 321 322 322 321 320 318 316 315 315 314 314 314 314 315 317 318 319 320 321 321 322 325 329 332 335 337 341 344 345 346 346 347 347 347 347 348 349 349 349 350 350 350 350 351 351 350 350 349 349 349 349 348 348 349 349 350 350 350 350 349 348 348 348 348 347 346 346 346 345 345 346 348 349
318 319 320 319 319 319 319 319 320 320 320 319 318 317 317 317 316 315 315 315 315 314 313 314 315 314 314 315 315 315 315 315 316 318 321 323 325 327 330 334 337 337 337 340 344 347 348 348 349 349 350 350 351 351 350 350 350 350 350 350 350 349 349 349 350 350 350 351 351 351 351 350 350 350 350 349 349 348 347 347 347 347 348 349 350
317 318 318 318 317 317 318 319 319 320 319 318 317 315 315 314 314 315 314 313 313 313 312 312 313 314 314 315 314 315 315 315 314 315 317 319 321 323 324 325 325 325 326 330 334 337 342 345 345 347 347 348 349 349 349 350 350 350 351 351 351 350 350 350 351 351 351 351 352 351 351 350 350 351 351 351 350 349 349 349 349 349 350 351 351
318 317 317 316 316 316 317 318 318 318 318 317 316 315 314 314 315 314 313 311 311 311 311 312 312 312 313 313 313 313 314 314 314 314 314 315 316 317 319 319 319 321 326 332 335 335 336 338 339 341 342 343 345 347 346 346 347 348 348 350 350 350 351 351 352 351 351 352 351 351 351 351 351 351 352 352 352 351 351 350 351 351 351 351 351
317 317 317 315 315 316 317 317 318 318 317 316 315 314 314 314 314 312 310 310 310 309 309 310 310 310 310 310 311 311 311 311 312 312 312 313 313 314 316 317 320 321 325 334 342 342 340 338 337 339 342 342 344 345 344 345 347 347 347 348 349 350 350 350 351 351 351 351 351 352 351 351 351 351 351 351 352 352 352 351 351 352 351 351 351
317 317 316 314 313 315 316 317 318 317 316 314 312 311 312 312 313 313 311 310 310 310 309 309 309 309 309 309 310 310 310 312 313 314 314 314 314 317 319 321 324 325 326 333 341 343 342 342 341 343 344 344 344 343 339 339 339 338 338 341 346 349 351 352 351 352 352 351 352 352 352 352 353 353 353 353 352 352 353 353 353 353 352 352 352
316 315 314 312 311 311 313 314 314 313 312 311 309 309 309 310 313 316 315 311 310 310 308 307 307 308 308 308 309 311 312 314 316 317 319 320 320 321 323 324 328 330 332 336 339 340 341 342 342 342 342 343 344 340 333 326 323 322 323 326 332 338 343 346 347 348 350 351 352 352 352 353 353 353 353 353 352 352 352 352 352 353 353 353 353
315 313 311 310 309 309 310 310 310 310 309 309 308 309 308 309 312 315 314 312 311 310 308 307 307 307 308 308 309 310 312 315 318 319 321 323 323 324 325 326 328 332 334 336 336 337 338 338 339 339 339 339 338 333 325 318 316 316 316 316 317 320 324 327 329 331 335 339 343 347 349 351 352 353 353 353 353 353 352 352 352 352 353 353 353
312 310 309 309 309 309 309 309 309 310 310 310 310 310 311 310 311 312 312 312 312 311 310 309 308 307 307 308 308 309 310 312 315 317 320 322 323 324 325 326 326 327 330 332 332 332 332 332 333 334 334 332 329 324 318 315 315 315 315 315 315 314 315 316 316 318 319 322 326 330 335 339 342 344 345 345 344 343 345 347 350 350 351 352 353
310 310 311 311 310 309 310 311 312 312 311 310 310 310 310 310 310 310 310 310 311 311 310 309 308 307 307 307 307 308 309 309 310 311 315 319 321 321 323 324 324 323 323 323 325 327 327 327 327 327 327 325 322 318 315 316 317 316 314 313 314 315 315 314 314 314 315 316 318 320 322 324 326 327 327 327 326 325 327 331 335 338 341 345 348
313 313 312 311 311 312 312 313 313 313 311 310 310 309 309 309 309 309 310 310 310 310 309 309 309 308 308 308 307 307 307 307 306 306 307 310 312 313 314 316 317 318 319 318 319 320 322 324 324 323 322 321 319 318 317 317 317 316 314 314 315 317 317 315 314 314 314 314 315 316 317 319 320 320 320 320 320 321 321 322 323 325 328 331 334
314 312 312 312 313 314 314 313 313 312 311 310 309 309 310 310 310 311 311 312 311 311 310 310 309 309 309 309 309 308 308 308 307 307 307 307 306 305 306 308 309 310 312 312 313 314 316 317 317 317 316 316 317 318 319 318 316 315 316 319 320 319 317 316 315 315 314 313 313 314 315 316 317 318 319 320 321 321 320 321 321 323 325 327 328
Wind_Speed
33 35 33 32 31 30 29 28 28 27 23 23 25 24 21 20 21 21 21 21 23 23 21 20 18 17 16 14 14 12 10 10 10 10 9 9 9 9 10 11 11 11 12 11 10 11 12 12 12 12 11 11 12 12 12 12 12 12 12 11 10 10 8 7 6 5 6 6 3 1 2 4 4 4 5 5 4 3 2 1 3 4 8 11 11
32 33 33 33 31 32 31 30 30 28 25 25 26 25 22 20 21 22 22 22 23 23 22 21 18 16 15 14 13 12 11 10 10 10 10 9 10 10 10 11 11 11 12 11 11 11 12 12 12 13 12 12 12 12 12 12 12 12 13 11 10 10 8 7 6 5 6 5 3 3 3 4 3 3 4 5 5 5 4 3 0 1 5 10 11
32 32 34 33 32 34 33 32 31 28 26 27 28 26 24 23 22 22 22 22 24 23 22 20 18 16 13 13 12 11 11 9 9 10 10 10 11 12 12 11 11 11 11 11 11 11 12 12 13 13 12 12 11 10 11 13 13 12 12 12 11 9 7 6 6 4 5 5 3 2 1 1 2 2 2 3 5 5 4 4 3 1 2 6 9
34 32 34 34 35 36 34 34 32 28 28 28 29 27 25 25 23 22 22 22 23 23 22 19 18 16 12 12 11 9 10 10 10 10 10 10 12 13 13 13 12 12 11 11 11 11 12 12 12 12 12 11 11 10 11 12 12 12 13 12 10 8 7 6 4 2 4 4 3 2 1 1 2 3 3 1 2 4 4 3 3 3 3 2 5
36 33 36 36 37 37 34 34 32 29 29 29 30 29 26 26 23 22 22 22 22 22 21 20 18 16 14 13 12 10 11 12 11 12 11 10 12 12 13 13 13 13 12 12 11 11 12 12 12 12 12 11 11 11 12 11 11 12 12 12 9 8 8 7 4 3 4 3 1 1 0 2 4 5 4 3 1 3 4 3 2 3 3 1 4
34 32 36 38 37 36 34 34 33 31 30 27 29 30 27 26 24 21 21 22 23 21 21 22 19 18 18 18 16 14 14 13 11 11 10 9 10 11 12 13 13 12 13 12 11 10 11 12 12 12 11 11 11 12 12 12 11 11 11 12 9 8 9 7 5 4 4 4 3 1 1 3 5 6 5 3 2 2 4 4 3 3 2 2 4
33 30 34 38 37 37 36 35 34 32 30 27 27 29 28 27 26 22 21 23 23 22 22 22 20 19 19 19 16 14 13 12 10 8 7 7 8 9 10 12 12 12 12 12 12 10 10 12 12 11 12 12 12 12 12 12 11 10 11 12 9 7 8 7 5 5 5 5 5 2 1 2 5 6 6 5 3 1 3 5 5 4 2 3 3
32 30 32 37 38 38 37 35 34 32 30 28 27 28 29 28 27 24 22 24 24 23 23 22 21 20 18 17 16 13 11 10 10 10 8 8 8 8 9 10 11 11 11 11 11 10 11 11 11 11 12 12 11 11 11 11 11 10 11 12 9 8 8 7 5 5 6 7 6 3 1 2 4 4 5 6 5 2 2 5 5 5 3 1 2
32 30 29 34 39 38 37 35 33 32 30 29 27 27 29 28 27 25 23 25 26 25 24 23 22 21 19 18 16 13 11 10 11 11 10 9 9 9 9 10 11 11 11 10 10 10 11 12 11 12 12 12 11 11 12 12 12 11 12 12 10 9 9 8 6 6 7 7 6 4 2 2 3 2 4 5 5 4 1 5 5 5 5 3 3
32 31 25 29 37 39 36 35 33 32 30 28 27 26 28 29 28 25 24 26 27 26 25 24 23 23 21 19 17 14 13 13 12 11 11 10 10 10 10 11 11 11 11 11 11 11 11 12 12 11 11 12 12 13 13 13 13 11 11 11 10 10 11 10 8 7 8 7 6 4 3 1 1 1 3 4 4 5 4 3 7 6 5 4 4
35 34 26 25 34 38 37 36 33 33 31 29 28 27 28 30 29 26 24 26 27 27 26 25 24 25 23 21 18 16 15 15 14 13 13 12 11 10 10 11 11 11 11 11 11 12 12 12 11 11 11 12 13 13 13 13 12 11 10 10 10 11 11 11 9 8 7 6 6 6 4 2 1 2 2 4 3 4 5 1 6 7 6 6 6
37 37 30 25 31 37 38 38 35 33 32 30 29 27 27 30 31 29 26 25 27 28 27 26 25 26 25 24 20 17 16 15 14 14 14 12 11 11 11 11 12 12 12 12 12 12 12 11 11 12 12 12 13 13 13 12 11 10 9 9 11 11 11 12 10 10 8 6 7 9 6 5 2 4 4 3 2 3 4 2 3 5 5 5 4
38 40 36 28 29 36 38 38 37 35 33 31 29 27 27 29 30 30 28 26 26 27 28 27 26 26 26 26 23 19 17 16 14 14 13 12 11 12 12 12 12 13 12 12 12 11 11 11 11 12 12 12 13 13 13 12 10 10 10 10 11 10 11 12 11 10 9 6 8 11 9 6 3 4 5 5 3 4 5 2 1 3 4 5 5
37 39 39 32 29 34 39 39 38 36 33 31 29 28 28 28 28 28 27 27 27 26 27 27 26 25 25 26 25 22 19 17 15 14 13 11 11 11 11 10 11 11 11 11 11 10 10 10 10 11 11 12 13 13 13 12 10 10 11 11 10 10 11 11 10 10 10 7 9 11 10 7 3 3 4 5 3 4 6 3 2 3 5 5 6
35 38 40 36 31 32 37 39 38 36 34 32 30 28 28 29 28 27 27 27 28 27 26 26 25 25 24 25 25 23 21 19 16 14 14 13 12 11 10 9 9 9 9 9 10 10 11 11 10 11 11 12 13 13 12 11 11 11 11 11 11 10 11 11 10 10 10 9 10 12 11 8 4 2 3 3 3 4 6 6 5 4 4 6 7
23 29 33 32 29 30 34 37 36 36 34 33 32 30 29 29 29 27 26 26 27 28 27 25 25 24 24 24 25 24 22 21 18 16 15 14 13 12 10 9 9 8 8 9 10 10 11 11 11 11 11 11 12 12 11 11 11 10 10 11 11 10 10 10 10 11 10 10 12 13 12 9 6 3 2 1 1 3 5 7 8 8 7 6 7
14 13 14 15 19 24 30 35 37 37 36 35 34 31 30 30 29 28 26 26 27 28 27 25 24 24 24 23 24 24 23 22 20 18 17 16 14 13 12 11 9 9 9 10 10 10 11 11 10 10 9 9 10 10 10 11 11 10 9 10 10 9 10 10 10 11 11 11 14 15 13 11 8 6 4 3 2 3 4 6 9 10 10 9 8
19 17 17 21 25 28 30 34 36 38 39 37 34 33 32 30 29 29 28 27 26 27 27 26 25 24 24 24 23 23 23 23 22 19 18 17 16 14 14 13 11 11 11 11 11 10 11 11 10 10 9 8 9 9 9 10 10 10 10 9 8 9 9 10 10 11 11 12 15 17 16 14 12 10 7 7 6 6 6 8 9 11 11 11 9
18 19 21 26 33 35 32 32 34 36 38 38 36 36 34 32 30 29 28 26 25 26 27 26 25 24 23 24 23 23 23 23 23 21 19 18 17 15 15 14 12 12 12 12 11 11 11 11 10 10 10 9 9 9 9 9 9 10 11 9 8 9 10 9 9 9 10 11 13 15 15 15 13 12 11 11 10 9 10 10 11 12 12 12 11
12 16 19 23 30 35 35 36 37 36 34 34 36 36 35 34 32 30 28 26 24 24 26 26 25 24 23 23 23 23 22 22 22 22 20 18 17 16 15 14 13 13 13 12 12 12 11 11 10 11 11 10 10 10 9 9 9 10 11 10 10 10 10 9 9 9 8 9 11 12 12 13 13 14 13 13 13 13 12 13 13 12 12 13 13
9 14 19 23 26 29 33 36 38 37 34 30 28 31 34 35 33 32 30 28 25 23 24 25 24 24 24 23 22 23 23 22 22 22 21 19 17 17 15 14 15 14 13 13 13 13 12 11 11 12 11 11 11 11 10 10 11 10 11 11 11 11 11 9 9 10 9 8 9 10 10 10 12 13 14 14 15 15 15 15 14 12 10 12 14
10 12 15 18 20 21 27 32 34 36 37 33 26 25 31 35 35 34 31 28 26 25 24 25 24 23 23 23 22 22 22 22 22 22 22 20 19 18 17 16 16 15 15 14 14 13 13 12 12 13 13 12 13 13 12 12 12 11 12 12 12 12 12 10 10 10 9 9 9 10 9 9 11 12 12 13 15 16 16 16 14 12 11 12 13
10 12 14 16 17 18 22 28 32 34 37 37 31 26 27 31 33 33 30 27 26 27 26 26 25 24 23 23 22 21 22 22 22 22 22 21 20 19 19 18 17 17 17 17 15 14 13 13 13 13 14 13 13 13 13 13 12 12 12 12 12 13 12 11 11 11 10 10 11 11 10 9 11 12 11 11 12 14 15 17 16 13 12 12 12
9 10 10 12 16 18 21 26 29 31 32 35 36 32 29 29 30 30 29 25 24 27 28 26 25 24 22 22 22 21 20 21 23 22 21 20 20 19 20 19 18 18 19 19 18 16 15 14 14 14 14 14 14 13 13 14 13 13 13 13 13 14 13 12 12 12 11 11 12 12 11 10 11 12 11 11 11 12 13 15 17 17 15 13 12
8 8 6 7 12 18 21 25 26 26 26 29 33 33 30 28 28 29 28 25 24 27 29 26 25 24 23 23 23 21 21 21 22 22 22 20 19 18 19 19 19 19 20 20 20 19 18 17 16 15 15 16 15 15 14 14 14 14 15 15 14 15 14 13 13 13 13 12 13 13 12 12 12 12 12 11 11 12 12 12 15 17 18 16 13
8 8 8 9 12 17 21 22 23 23 24 24 25 28 28 27 27 27 26 25 25 27 29 27 25 25 25 25 24 23 22 21 21 22 22 21 20 19 19 20 20 20 21 21 21 20 19 19 18 17 17 17 16 16 15 15 14 15 15 15 16 16 15 14 14 14 14 13 13 14 14 14 14 14 13 12 12 12 12 11 12 15 17 18 16
9 9 10 11 13 16 20 21 20 21 23 24 24 24 24 24 25 25 24 24 26 28 28 27 26 26 26 27 26 23 22 22 23 23 23 23 22 21 21 21 21 22 22 22 22 22 21 19 18 17 17 17 17 17 17 16 15 15 15 15 16 16 16 16 15 14 14 14 14 14 14 15 15 15 14 14 13 13 13 13 12 13 15 18 19
10 10 10 11 13 15 18 20 19 18 18 19 21 22 23 22 22 23 24 24 26 26 27 28 28 27 27 27 26 24 22 22 22 23 23 24 25 24 23 23 23 23 23 23 22 22 23 21 18 16 15 15 16 17 18 18 18 17 16 16 16 16 16 16 16 15 15 14 14 14 15 15 15 15 14 13 12 11 12 12 11 11 12 14 17
12 12 11 12 12 12 13 16 18 20 20 19 17 18 21 22 19 19 20 22 22 22 24 28 28 28 29 27 25 24 23 22 22 23 23 24 25 26 26 25 24 24 24 24 23 22 22 23 21 19 17 16 15 16 16 17 18 19 19 19 18 18 17 17 17 17 16 16 16 15 16 16 16 15 15 13 11 9 11 12 11 12 13 13 14
15 15 14 14 14 13 10 11 14 16 17 18 19 18 18 19 19 18 17 18 18 16 19 24 27 27 27 27 27 26 24 23 24 25 24 23 26 27 27 26 26 25 24 25 26 25 23 23 23 22 21 19 18 16 15 14 15 16 18 19 20 20 20 19 19 18 18 18 18 18 17 17 17 16 15 14 13 11 12 14 14 14 16 17 17
14 14 14 14 15 14 12 11 11 12 13 15 16 16 16 16 16 17 17 16 17 17 17 19 22 23 23 25 27 27 26 25 25 26 25 24 26 28 28 27 26 25 24 24 27 29 27 25 24 24 24 22 21 19 16 15 14 13 13 15 17 19 20 21 21 22 21 20 20 20 19 19 18 17 16 16 15 14 14 15 16 17 18 18 20
15 15 15 16 17 18 18 17 15 14 16 16 15 14 13 13 12 14 17 17 18 19 18 18 18 19 20 22 24 26 26 26 26 26 26 26 26 28 29 29 27 24 21 22 24 29 31 29 27 26 25 24 23 22 21 20 19 17 16 15 15 16 17 18 19 21 22 22 22 22 22 22 21 21 20 19 18 18 17 18 18 19 20 20 21
16 17 18 18 18 20 20 21 19 18 18 18 17 15 13 11 11 12 15 16 17 17 16 15 16 17 18 19 20 21 23 24 24 25 26 27 27 28 29 29 28 26 22 19 21 27 31 31 30 29 27 26 25 25 25 24 23 22 21 20 19 18 17 16 16 17 18 19 20 21 22 22 23 23 23 23 23 22 22 22 22 22 22 23 24
16 17 19 19 19 18 18 19 19 19 19 18 18 17 14 10 9 10 10 11 13 14 13 13 14 16 17 17 17 17 18 19 21 22 23 24 25 27 28 28 29 28 25 21 21 24 29 31 30 29 27 27 26 26 25 25 24 23 23 22 22 21 20 19 18 18 18 18 18 19 20 20 21 21 23 24 25 25 25 25 25 24 24 25 25
18 17 17 18 18 18 18 18 17 16 16 17 19 19 18 13 11 11 10 9 8 9 9 10 11 13 14 14 14 15 15 16 17 18 20 21 22 23 25 26 27 28 28 25 23 23 27 29 30 29 28 27 26 26 26 24 23 23 24 24 24 24 24 24 24 24 24 24 23 24 24 24 23 22 22 22 23 24 25 25 25 25 25 25 26
18 17 17 17 17 17 17 17 18 16 14 15 16 17 17 16 15 15 15 14 13 11 9 8 7 7 8 10 11 12 12 12 14 15 17 18 19 19 20 22 23 25 25 25 24 24 25 28 29 30 30 29 27 25 24 23 23 23 24 24 24 24 25 26 27 27 27 28 28 28 29 29 29 28 26 25 24 24 25 26 26 27 28 28 29
16 16 17 17 16 15 15 16 17 18 16 15 14 14 14 14 13 15 16 15 15 14 12 10 10 9 6 5 7 9 10 9 10 12 14 15 17 17 17 18 19 21 21 21 21 22 23 25 26 26 27 29 30 28 26 24 24 24 25 25 25 25 26 27 28 28 28 28 28 29 29 31 31 31 29 28 27 27 28 28 29 29 30 31 32
15 16 17 16 14 14 14 13 14 15 15 15 14 12 11 11 10 12 14 14 14 13 12 11 10 10 9 7 4 5 7 6 7 9 11 13 15 16 16 16 17 18 18 19 19 19 20 20 20 19 19 22 25 26 25 25 26 26 28 29 29 30 31 33 34 33 33 33 32 31 30 31 32 32 31 29 29 30 32 32 32 33 33 35 35
14 15 16 15 13 12 12 11 11 11 11 12 12 10 8 7 7 7 9 10 11 11 10 10 9 9 9 9 8 7 6 3 2 4 6 8 10 12 14 16 16 15 16 17 19 18 17 18 19 22 23 24 24 23 22 22 24 27 30 32 34 35 37 38 38 38 37 36 36 36 36 35 36 35 34 33 31 32 35 36 35 36 37 38 37
13 13 13 12 11 11 10 9 9 8 7 7 8 7 4 3 3 2 3 6 8 8 7 6 6 7 7 7 8 8 7 5 4 2 0 1 3 5 8 11 12 12 13 15 18 17 15 14 18 22 24 25 26 25 24 24 26 28 30 32 34 36 38 39 40 39 38 37 37 38 38 38 37 35 35 35 36 35 36 37 38 39 40 40 38
12 11 10 8 9 9 9 7 6 5 4 4 4 3 2 1 1 2 3 3 4 4 3 3 3 3 3 3 4 5 4 4 4 4 3 2 1 1 2 3 5 6 8 11 15 17 16 14 15 18 19 19 20 22 24 26 27 28 28 30 32 34 35 36 37 37 37 36 36 35 34 34 34 33 32 33 36 38 38 39 40 41 41 40 39
11 9 8 7 6 7 8 7 5 4 3 2 2 2 1 1 1 2 3 4 4 4 2 1 1 1 1 1 1 1 1 1 1 1 1 1 1 1 1 1 1 3 5 6 8 12 16 17 17 17 17 17 17 19 20 21 24 26 27 28 31 32 33 34 36 37 37 36 35 33 31 30 30 30 29 29 32 36 38 39 40 40 39 39 39
9 7 7 7 7 7 7 7 6 5 4 2 2 2 1 1 1 2 3 5 5 5 5 4 3 3 3 3 4 4 4 4 4 4 3 2 2 1 1 1 0 1 3 4 3 4 7 10 12 12 13 14 14 14 13 13 15 20 23 26 28 30 32 33 35 36 36 36 35 34 33 31 29 28 27 28 30 33 36 38 39 39 39 39 38
7 6 6 7 8 8 7 6 6 5 4 3 3 2 2 2 2 3 4 4 5 6 6 5 4 4 4 4 4 4 4 4 4 4 4 3 3 3 2 2 2 1 1 3 1 2 3 4 6 8 10 11 11 10 9 8 9 11 16 19 23 26 28 30 32 33 34 34 34 33 33 32 30 29 29 29 30 31 33 36 38 39 39 38 36
7 6 6 6 7 6 6 6 5 4 4 4 3 3 2 3 4 4 4 4 5 5 5 4 4 4 4 5 5 5 5 6 6 6 5 5 5 4 3 3 3 3 2 2 3 3 4 3 4 7 8 9 9 9 9 9 9 11 13 16 17 18 20 22 25 27 29 30 31 31 31 31 30 30 31 31 32 32 31 32 34 36 37 36 35
7 7 6 6 6 6 6 6 5 4 3 3 3 3 3 3 4 5 5 5 5 5 4 3 3 4 5 6 7 7 7 8 8 7 6 6 6 6 5 4 3 3 4 5 5 5 5 5 6 8 10 10 10 10 11 13 14 14 15 15 16 16 17 18 20 21 23 25 27 28 29 30 30 30 31 31 31 31 31 31 32 33 35 35 34
8 7 6 6 6 6 6 5 4 4 3 3 4 4 4 5 5 5 5 6 6 6 5 5 4 4 6 8 8 9 10 10 9 9 8 7 7 6 6 6 6 6 7 7 7 7 8 8 10 13 14 15 15 16 17 18 18 17 16 16 17 17 18 19 21 21 22 23 24 26 27 28 29 30 30 30 29 30 30 30 30 31 32 33 34
9 8 7 6 5 4 4 4 4 4 4 4 4 5 6 7 7 8 7 7 7 7 7 7 6 6 8 9 9 10 11 11 11 10 9 9 9 8 8 7 7 8 9 9 10 10 11 12 14 17 19 20 20 21 20 19 19 18 18 18 18 18 19 20 21 22 23 23 24 26 26 26 27 27 28 29 29 30 30 30 30 31 31 31 31
9 8 7 6 4 3 3 3 3 4 4 5 5 6 7 8 8 9 9 9 9 9 9 9 8 8 9 10 11 11 12 12 12 12 11 11 11 12 12 11 11 10 11 11 12 13 14 16 17 18 20 22 24 24 22 20 19 19 19 20 20 19 20 20 21 22 23 24 24 25 25 25 25 25 26 27 28 28 28 29 30 31 32 32 31
8 7 6 3 2 3 3 3 4 4 5 5 5 5 6 7 7 7 7 8 9 10 10 10 10 9 9 10 10 11 11 12 13 13 13 13 13 13 14 15 15 16 15 15 16 16 17 19 20 21 22 23 25 25 22 20 20 21 21 21 20 20 20 21 21 22 24 25 25 25 25 25 25 26 26 27 27 27 27 27 28 28 30 31 32
7 6 4 4 5 5 5 5 6 7 7 7 6 5 3 3 4 4 5 7 9 11 11 11 11 11 10 9 10 10 10 11 11 12 13 14 14 15 14 15 16 18 19 20 21 21 21 22 23 24 25 24 23 23 22 22 23 22 21 20 20 21 21 21 21 22 24 25 25 25 25 25 25 26 28 28 28 28 28 29 28 27 27 28 29
Wind_Direction
171 175 176 176 177 179 178 179 181 179 180 181 183 191 192 183 184 182 176 174 168 169 177 180 181 181 181 181 183 188 190 182 179 183 190 193 194 196 195 195 197 194 190 190 188 187 187 185 183 182 184 185 178 170 167 169 168 163 162 158 152 153 158 159 158 168 187 197 192 123 149 167 170 176 185 193 195 199 200 88 48 68 67 57 55
171 173 175 175 178 180 179 179 179 178 178 181 186 193 194 189 191 188 181 178 176 176 180 184 186 185 181 183 186 188 191 191 186 182 185 192 195 198 200 201 202 195 191 192 188 187 192 192 186 183 185 185 181 175 172 173 168 163 165 161 153 156 162 162 153 154 181 192 159 125 141 162 185 196 202 209 208 209 211 209 122 69 71 62 61
174 171 172 176 179 179 179 179 180 181 179 181 188 194 195 195 196 193 186 183 182 182 185 188 188 187 184 184 184 184 185 189 192 189 190 195 195 198 201 203 203 201 197 197 192 189 193 193 186 184 185 183 180 178 175 172 167 162 163 162 160 163 166 160 147 139 162 167 152 145 142 211 233 236 230 219 207 203 197 194 193 173 107 68 62
175 172 171 174 177 178 179 179 180 181 180 181 189 194 197 199 198 194 189 187 186 186 189 191 186 184 186 186 187 186 181 183 189 189 192 196 195 195 196 198 202 202 202 200 194 191 194 193 188 188 188 183 180 183 182 177 172 166 164 166 167 163 161 158 150 158 168 154 144 137 63 332 337 332 291 273 215 196 185 185 186 173 166 85 58
175 172 171 174 176 178 180 181 181 182 182 184 190 195 200 202 200 195 191 189 189 187 189 191 186 180 180 183 189 190 184 187 190 186 188 191 190 190 190 193 198 200 202 202 195 195 201 198 191 193 194 187 182 186 187 183 180 176 173 173 168 156 157 162 166 170 165 162 166 146 36 336 352 347 311 295 295 191 182 195 188 164 171 100 57
177 174 172 176 178 180 182 183 184 184 186 190 193 197 202 204 202 199 193 190 190 188 188 191 188 180 178 181 187 190 190 194 194 191 191 187 183 186 186 185 189 195 202 205 200 198 203 198 193 196 198 192 186 186 185 183 182 181 180 176 170 165 164 169 185 188 182 191 192 173 342 334 345 350 344 328 307 221 197 210 209 179 135 70 67
177 176 174 178 180 181 183 185 187 188 189 192 195 199 203 204 203 203 198 193 191 189 190 191 189 186 183 184 189 191 193 196 194 189 188 185 183 186 184 179 183 191 197 201 199 200 201 195 194 198 199 198 193 188 185 185 186 184 182 179 177 179 178 185 202 203 198 196 191 198 272 338 340 347 1 9 1 307 231 218 211 197 135 63 56
178 176 176 180 183 184 186 188 191 192 190 192 195 199 203 203 203 206 202 194 192 191 193 192 190 192 191 192 194 193 195 198 193 185 177 182 187 189 187 181 181 186 191 196 198 203 201 195 197 198 196 197 195 193 191 191 194 191 185 186 188 190 194 203 204 188 185 188 192 200 199 322 324 340 8 12 12 18 210 208 206 207 208 4 14
183 180 178 181 185 188 190 190 192 193 192 193 198 201 204 205 204 207 203 195 194 193 194 193 191 194 198 199 199 194 191 194 191 187 181 179 181 185 190 185 181 183 187 193 197 201 199 194 198 199 195 195 195 195 196 199 205 199 191 192 195 202 207 206 196 180 180 187 195 191 179 269 296 340 21 8 8 35 127 211 218 219 227 234 240
191 185 181 183 187 190 192 192 192 194 194 196 200 203 205 207 207 208 203 195 194 195 196 195 191 194 200 203 202 196 192 193 189 188 188 183 179 182 189 189 186 186 186 189 192 196 196 194 196 198 197 197 196 195 196 203 207 202 197 197 201 212 214 204 197 195 194 196 202 198 195 250 342 56 31 17 9 24 41 204 208 198 190 180 182
197 193 189 186 189 191 192 192 192 194 197 198 201 204 206 208 209 210 204 195 195 196 197 197 194 194 200 206 205 198 196 197 192 191 192 189 185 182 186 192 191 187 186 187 190 191 193 194 193 195 199 199 198 198 200 206 208 202 203 204 206 216 214 205 203 207 209 208 208 209 206 196 35 14 2 15 4 1 27 104 198 186 168 159 153
200 199 196 189 190 191 189 191 193 194 197 199 201 206 207 208 211 211 208 199 196 198 199 200 198 196 199 205 206 202 201 201 199 197 194 191 188 179 180 192 191 187 188 189 190 189 188 191 193 195 200 201 201 203 204 211 212 207 211 215 212 213 211 209 212 214 220 224 213 210 202 195 256 325 317 326 334 322 355 13 204 186 167 168 165
203 203 200 194 192 191 188 190 194 195 197 201 204 207 208 208 210 212 210 203 199 201 202 203 203 201 200 202 205 205 205 206 205 206 201 195 192 181 179 189 192 191 192 191 192 190 188 193 197 200 203 203 204 205 208 216 218 212 216 221 217 214 213 213 218 220 222 223 209 205 199 199 242 319 308 299 298 290 309 330 211 207 193 192 192
203 202 201 199 195 190 189 191 194 196 198 202 207 210 209 208 208 211 211 207 203 204 205 207 207 205 202 202 204 205 207 208 207 210 211 205 202 194 185 188 194 195 194 193 195 195 197 200 200 203 204 204 208 210 212 219 223 219 219 223 220 218 220 219 221 220 217 213 203 197 197 201 231 311 299 286 283 290 293 280 244 232 217 210 202
203 203 203 203 199 193 190 192 194 196 198 203 208 211 211 210 209 211 212 209 207 207 209 210 208 207 205 204 205 206 207 210 210 214 218 215 210 207 200 196 198 198 196 199 201 199 203 204 202 206 207 207 211 215 217 222 226 224 221 224 222 219 223 224 221 219 216 213 205 197 197 205 222 279 307 308 295 291 287 272 271 266 239 228 218
202 203 204 205 200 193 190 192 195 199 201 204 208 212 212 211 211 212 213 211 209 208 210 212 210 208 207 206 207 206 206 209 211 216 221 220 215 213 213 208 201 199 201 206 209 207 206 206 204 207 209 208 213 218 221 224 231 230 223 225 225 222 228 230 222 220 219 214 210 204 202 210 226 244 280 347 307 284 283 277 278 281 274 262 240
192 191 197 205 199 191 192 194 195 198 202 205 209 213 213 212 212 212 213 213 212 210 209 212 211 208 207 207 208 207 206 208 211 215 220 222 220 218 217 214 206 202 204 207 213 214 211 209 207 210 211 209 215 222 222 225 233 235 229 228 228 227 234 236 229 226 225 218 213 211 210 217 232 244 244 236 238 256 275 282 281 280 281 280 265
194 195 199 207 205 199 199 199 197 198 201 205 210 214 214 214 213 213 214 214 213 212 210 211 212 210 209 209 210 210 208 210 214 217 219 220 221 220 217 214 209 206 206 208 212 215 215 214 210 212 214 211 218 226 224 225 233 235 233 234 233 232 237 241 237 230 230 227 220 219 223 226 235 245 243 240 244 245 254 269 275 276 275 276 270
193 195 194 200 203 204 202 199 197 198 201 204 208 212 213 215 215 215 217 218 215 212 210 211 213 213 212 211 213 214 213 213 216 219 220 219 219 218 217 213 209 209 210 211 213 215 217 216 214 214 214 212 218 226 227 229 233 233 232 234 236 237 239 241 243 238 235 237 234 231 230 227 231 243 246 244 248 249 253 260 268 273 271 271 270
183 186 188 194 199 202 203 202 200 198 198 200 205 209 212 214 216 217 217 218 216 213 211 210 211 213 215 215 215 217 218 217 218 220 221 221 219 218 218 215 213 212 213 213 215 216 214 214 219 221 217 216 220 224 227 232 235 235 234 234 234 237 239 238 240 240 238 240 243 243 238 231 231 240 247 249 250 251 255 259 266 271 268 267 268
150 178 191 199 200 200 202 204 205 201 197 197 201 207 210 212 214 217 217 218 217 216 213 212 212 213 215 217 217 218 220 220 219 221 223 224 224 222 221 221 219 217 217 217 215 215 215 213 218 225 223 221 224 224 223 230 235 236 237 238 236 236 238 238 237 241 242 240 240 239 240 243 245 245 248 252 253 252 254 260 264 264 259 263 269
134 167 185 198 200 200 200 201 203 203 202 202 201 200 206 208 208 209 208 209 210 213 216 215 216 216 217 219 219 219 221 222 221 221 223 225 227 226 226 225 223 219 221 225 220 216 217 215 217 225 226 223 225 224 222 228 235 236 237 240 242 241 240 239 237 239 242 243 242 240 238 244 253 257 254 252 254 254 253 256 261 259 254 260 272
132 165 182 188 186 190 197 197 201 206 209 209 205 201 204 208 207 204 201 200 203 209 214 216 216 217 217 219 221 222 223 223 223 222 222 223 225 228 227 227 226 220 219 226 228 223 220 219 219 225 230 229 228 224 221 226 233 237 239 241 243 246 245 243 241 240 241 246 251 254 253 249 253 258 259 256 256 256 251 250 253 256 254 255 266
124 154 179 183 174 178 188 192 197 204 209 210 211 211 209 208 208 207 207 208 211 213 214 216 217 217 217 218 221 225 227 227 225 223 222 222 223 225 226 228 231 226 220 222 228 229 227 226 224 225 230 234 233 229 224 225 229 234 240 243 245 248 249 250 249 245 245 248 254 260 262 262 259 259 260 261 260 259 253 248 249 251 252 254 264
112 126 139 151 149 154 170 183 190 196 200 204 210 213 213 209 209 210 210 211 215 216 215 216 218 218 218 218 219 221 226 231 230 226 223 220 219 222 227 231 235 234 229 226 228 231 232 233 232 229 229 233 236 237 233 230 229 230 235 240 244 248 251 253 252 250 249 249 253 259 263 263 263 262 262 264 266 266 264 258 253 251 251 255 262
100 107 104 105 112 123 142 164 182 191 194 196 202 208 210 207 205 206 210 211 213 213 212 213 216 215 216 218 217 215 216 222 230 231 226 218 216 221 228 232 237 239 238 235 234 234 235 236 237 236 235 235 236 239 239 238 237 234 233 236 239 244 249 253 255 254 252 252 253 258 262 263 263 263 264 263 265 269 270 268 262 255 253 256 258
95 98 94 93 96 106 121 141 164 181 190 193 194 197 199 199 200 203 206 209 212 212 210 210 213 214 216 217 218 218 217 219 224 227 226 221 218 223 227 230 234 239 242 242 240 240 241 242 242 241 241 241 241 242 243 244 243 242 240 238 238 241 245 250 255 257 255 255 256 257 258 261 263 265 267 267 267 269 271 271 270 264 258 256 256
92 95 95 92 89 94 105 119 136 149 161 173 177 183 186 186 194 201 203 205 209 209 208 208 210 215 217 217 218 222 223 224 224 225 225 222 221 224 226 229 233 237 241 245 244 243 243 245 248 250 251 251 251 250 249 248 249 250 249 248 246 246 247 249 252 256 259 259 260 260 259 260 263 265 267 270 273 277 280 282 284 282 276 267 262
87 90 95 95 90 90 93 96 105 116 126 137 147 169 186 191 196 199 199 203 205 206 208 208 210 214 218 218 218 220 220 221 225 228 226 223 223 225 226 228 232 236 239 243 246 247 246 245 247 250 253 256 258 258 257 256 256 256 257 257 256 256 256 254 252 252 255 259 261 261 262 262 265 268 267 266 266 273 282 288 294 297 296 293 288
84 85 91 94 89 87 93 93 90 97 113 125 128 138 167 190 199 195 193 200 204 204 207 210 212 216 218 219 220 220 220 220 224 228 228 224 224 226 227 229 231 235 238 239 241 245 246 245 245 247 250 253 256 260 264 265 265 266 265 265 264 263 261 261 260 257 255 257 260 262 264 264 264 266 268 267 264 264 270 278 285 289 291 291 291
90 88 90 93 89 84 89 97 93 88 96 109 115 123 143 168 182 186 190 199 203 204 208 210 212 215 219 222 223 223 223 224 227 229 229 228 227 227 228 228 230 234 239 239 239 240 242 244 245 246 249 251 254 258 264 268 270 273 274 274 272 270 267 264 264 264 263 263 264 266 267 268 268 268 270 271 272 271 271 273 278 283 285 285 285
100 96 89 86 85 82 82 87 95 101 101 104 113 126 144 153 157 169 180 187 192 197 204 210 211 213 217 219 221 222 223 225 228 230 231 231 231 230 230 230 230 233 237 240 239 238 239 241 242 244 247 250 252 255 258 262 265 266 270 274 276 276 274 270 267 266 268 269 270 271 273 273 274 275 275 276 277 276 275 275 276 279 282 284 284
104 99 93 89 87 84 83 84 90 97 100 105 112 117 129 145 153 163 174 180 180 177 179 186 192 196 201 206 210 214 216 219 222 225 228 230 231 231 231 231 233 234 236 238 238 236 236 237 240 242 244 247 249 250 252 255 258 260 262 265 270 273 275 275 273 271 271 273 274 276 277 278 279 280 279 278 278 278 278 277 277 277 277 278 279
106 104 100 97 93 91 89 87 87 90 94 98 98 94 95 113 136 151 167 181 184 181 177 181 184 181 181 187 193 197 202 208 213 218 223 227 229 230 231 232 234 236 237 237 237 235 234 235 236 239 241 245 248 249 250 250 251 253 256 258 261 265 268 271 272 272 272 273 274 276 278 281 283 283 282 281 280 279 279 279 279 279 278 276 275
105 107 109 104 97 94 93 93 92 91 91 93 91 86 86 89 99 113 125 136 157 175 182 191 198 193 186 185 187 187 191 197 204 212 218 222 225 228 231 233 235 236 237 238 237 234 232 232 234 235 238 242 246 249 250 249 249 251 253 254 256 259 263 266 268 269 270 270 271 271 273 275 278 280 281 282 282 281 280 279 278 278 279 279 277
101 100 112 111 103 99 96 97 103 102 94 95 95 88 84 83 86 94 103 109 114 120 126 135 153 173 187 195 197 198 199 201 206 212 216 219 223 225 228 231 233 235 237 238 238 235 233 232 232 233 236 239 243 245 247 246 247 249 251 253 255 256 260 264 266 268 269 269 269 269 269 270 271 273 275 278 280 281 280 279 279 279 281 282 282
103 96 108 111 106 106 103 102 108 106 98 99 103 97 88 83 82 89 96 101 104 104 105 110 114 117 128 163 196 205 210 220 228 229 229 230 231 232 232 232 235 237 239 241 242 239 235 233 232 234 238 241 243 244 245 245 245 248 251 254 256 257 259 262 265 267 269 270 271 270 271 271 270 269 269 271 274 276 276 277 278 280 282 282 283
107 101 110 111 105 108 111 110 112 110 104 103 108 110 105 95 88 90 94 97 97 94 93 98 106 111 110 104 122 175 198 223 245 250 250 248 245 246 246 245 245 245 246 248 248 245 240 237 236 238 242 246 249 250 252 253 253 253 256 258 260 262 264 265 266 267 268 270 271 271 271 272 271 270 268 267 268 270 272 273 274 277 279 280 282
112 105 109 114 112 113 115 117 116 114 113 114 115 116 112 97 89 89 92 95 93 88 87 89 95 105 110 104 102 123 144 153 210 249 259 258 253 252 252 251 252 254 256 256 256 259 261 259 256 252 248 248 250 253 256 260 260 259 259 260 261 263 264 266 267 267 268 269 271 271 271 271 272 271 269 266 266 266 267 270 272 273 276 278 281
128 117 114 119 124 126 123 116 111 113 122 133 134 132 126 103 77 49 56 75 78 76 77 81 85 92 102 103 101 109 116 107 100 105 47 299 280 273 264 259 260 262 265 264 262 262 266 264 259 256 253 250 250 252 254 257 258 259 259 260 261 262 264 265 267 268 268 269 270 270 270 271 272 271 269 266 265 264 264 266 268 269 271 275 280
142 137 134 133 129 128 128 124 118 124 137 153 163 166 159 165 281 327 353 19 32 43 58 70 72 72 81 92 93 97 103 101 103 109 112 111 80 20 330 296 291 295 297 289 274 264 259 254 249 250 252 252 254 255 255 255 256 258 260 261 260 261 263 265 266 267 267 268 270 272 272 272 273 274 272 269 266 264 263 263 264 266 269 274 279
149 153 157 162 152 137 139 147 155 169 181 179 199 207 176 185 281 320 320 310 314 322 330 348 6 339 317 320 336 334 339 352 9 55 89 118 135 96 75 51 5 350 347 335 310 287 274 264 258 255 254 255 257 258 260 263 264 264 266 266 263 261 262 264 265 265 265 266 269 273 276 277 276 275 275 273 271 268 265 264 266 268 270 274 277
157 167 169 175 173 161 157 166 176 188 200 205 219 219 188 200 255 286 285 282 288 294 292 296 298 289 288 295 299 299 302 307 309 310 317 320 314 317 8 14 336 35 43 38 5 306 281 272 267 259 250 249 251 253 259 268 270 270 269 266 264 262 261 261 263 264 265 266 268 271 273 275 274 271 270 269 269 267 266 266 267 269 271 273 275
168 177 175 176 178 173 169 176 184 191 200 214 234 229 205 196 204 217 244 263 277 283 284 290 293 290 286 280 274 276 281 282 278 274 270 272 276 273 269 273 267 268 61 72 103 214 233 258 266 253 247 249 251 253 261 269 273 280 280 273 268 265 263 263 265 267 269 271 271 272 272 272 272 270 267 265 265 265 265 265 266 268 270 271 272
179 185 185 187 191 192 190 195 204 212 213 219 231 230 206 174 174 195 219 238 259 273 280 288 285 276 269 262 253 244 238 238 243 249 246 239 235 229 228 249 270 261 224 162 151 196 212 220 247 257 262 267 266 267 280 289 290 294 296 292 285 279 274 273 273 273 273 273 274 274 274 274 274 273 270 268 267 267 267 266 265 265 265 265 266
196 203 204 203 208 215 218 220 229 237 227 215 215 216 208 188 185 202 227 242 256 270 279 279 268 257 252 247 240 231 225 223 227 231 230 228 227 223 222 233 248 243 216 190 184 201 206 209 233 253 261 266 266 272 286 297 298 296 295 295 294 291 287 286 286 285 282 281 279 277 275 274 275 275 275 274 273 272 270 269 268 267 267 267 267
214 220 219 217 220 226 232 240 248 251 248 232 218 216 219 219 221 231 246 258 264 266 267 262 247 238 243 244 240 235 231 229 230 230 227 227 234 237 236 235 232 225 216 209 214 226 232 238 248 256 262 267 270 276 287 296 297 294 293 293 293 294 293 292 292 292 290 288 286 284 281 279 279 279 281 282 282 281 278 276 274 273 272 272 271
222 229 230 233 243 250 250 253 257 256 255 248 237 235 236 238 244 252 259 268 270 269 269 264 252 240 243 248 250 249 246 245 246 245 241 239 244 248 246 246 252 251 244 239 240 246 254 260 263 265 269 273 276 282 290 295 292 290 291 291 291 293 294 293 293 293 291 289 287 287 287 287 287 286 286 286 287 288 287 286 284 283 280 277 276
214 222 235 252 268 266 243 230 239 257 267 260 250 246 247 251 257 262 267 272 274 274 274 272 265 254 247 247 249 251 253 255 256 256 254 251 255 261 259 254 256 265 271 269 263 262 265 269 272 275 279 283 285 286 289 289 286 286 288 288 289 291 291 292 295 296 295 292 290 289 290 291 291 291 291 291 292 294 294 291 289 287 286 284 282
202 227 250 261 225 200 207 222 247 277 299 297 283 267 262 265 271 272 276 279 278 279 279 276 276 274 269 268 268 265 263 263 263 264 263 255 252 258 266 267 262 260 264 269 270 271 272 274 276 279 280 283 285 286 286 284 282 285 285 284 284 285 286 288 290 291 292 293 293 294 295 295 295 295 295 296 297 298 297 294 292 290 288 287 286
214 237 228 179 167 187 215 248 274 296 309 309 306 302 293 286 274 265 272 279 283 286 288 286 289 293 293 294 295 292 289 286 283 282 281 274 262 252 254 263 267 264 261 261 262 264 267 270 273 275 276 277 277 279 280 279 279 280 280 278 278 278 279 282 285 286 287 288 290 293 296 297 297 296 296 298 299 298 297 296 297 296 294 292 291